Powrót do katalogu

STARLINK-11356

AktywnyŁącznośćVLEO
NORAD 61574·PAYLOAD·🇺🇸 United States

Wystrzelony Oct 18, 2024 z Cape Canaveral Space Force Station

Loading…

Następne Przeloty (najbliższe 24 godziny)

TLE

ŚwieżeSource: CelesTrak SupGP

Epoka: Sep 14, 2026, 22:49 UTC

1 61574C 24187A   26257.95118056  .00054854  00000+0  45180-3 0  2575
2 61574  53.1569  83.2887 0001108  72.3292   1.4269 15.69684548    14

Śledź STARLINK-11356 w czasie rzeczywistym z AllMySat

Download on the App Store